SVA313 OERK-OESB

Flight info

Callsign SVA313
Flight time 1h 12m
Altitude 37000
Route RAPMA DCT CHLY3
Aircraft A320/M-SDE3FGHIRWY/LB1

Departure

Time 2026-04-17 09:06
Airport King Khalid International Airport (OERK)

Arrival

Time 2026-04-17 10:19
Airport Shaibah Airport (OESB)
Time Latitude Longitude Altitude Speed Heading
2026-04-17 08:49 24.94444 46.71463 2031 ft 0 kts 61°
2026-04-17 08:54 24.94440 46.71458 2031 ft 2 kts 32°
2026-04-17 08:54 24.94430 46.71449 2031 ft 2 kts 64°
2026-04-17 08:55 24.94424 46.71434 2031 ft 2 kts 59°
2026-04-17 08:55 24.94417 46.71420 2031 ft 2 kts 62°
2026-04-17 08:55 24.94409 46.71406 2031 ft 2 kts 61°
2026-04-17 08:55 24.94403 46.71393 2031 ft 0 kts 61°
2026-04-17 08:56 24.94396 46.71383 2031 ft 2 kts 32°
2026-04-17 08:56 24.94382 46.71379 2031 ft 2 kts 353°
2026-04-17 08:56 24.94374 46.71381 2031 ft 1 kts 330°
2026-04-17 08:56 24.94369 46.71385 2031 ft 0 kts 330°
2026-04-17 08:58 24.94381 46.71377 2031 ft 4 kts 330°
2026-04-17 08:58 24.94431 46.71346 2031 ft 11 kts 330°
2026-04-17 08:59 24.94507 46.71298 2032 ft 14 kts 330°
2026-04-17 08:59 24.94593 46.71275 2034 ft 9 kts 38°
2026-04-17 08:59 24.94639 46.71346 2034 ft 13 kts 64°
2026-04-17 08:59 24.94689 46.71447 2035 ft 16 kts 59°
2026-04-17 09:00 24.94755 46.71569 2032 ft 21 kts 60°
2026-04-17 09:00 24.94848 46.71647 2028 ft 13 kts 333°
2026-04-17 09:00 24.94934 46.71595 2030 ft 15 kts 332°
2026-04-17 09:00 24.95031 46.71536 2031 ft 16 kts 330°
2026-04-17 09:01 24.95140 46.71466 2033 ft 18 kts 330°
2026-04-17 09:01 24.95256 46.71393 2035 ft 19 kts 330°
2026-04-17 09:01 24.95376 46.71318 2037 ft 20 kts 330°
2026-04-17 09:01 24.95502 46.71237 2038 ft 22 kts 330°
2026-04-17 09:02 24.95643 46.71149 2037 ft 24 kts 330°
2026-04-17 09:02 24.95792 46.71054 2037 ft 25 kts 329°
2026-04-17 09:02 24.95951 46.70954 2037 ft 26 kts 330°
2026-04-17 09:02 24.96117 46.70848 2036 ft 28 kts 330°
2026-04-17 09:03 24.96276 46.70748 2036 ft 21 kts 330°
2026-04-17 09:03 24.96395 46.70673 2038 ft 19 kts 330°
2026-04-17 09:03 24.96515 46.70598 2040 ft 20 kts 330°
2026-04-17 09:03 24.96640 46.70518 2043 ft 20 kts 330°
2026-04-17 09:04 24.96768 46.70436 2046 ft 21 kts 329°
2026-04-17 09:04 24.96899 46.70353 2045 ft 21 kts 330°
2026-04-17 09:04 24.97019 46.70335 2042 ft 13 kts 40°
2026-04-17 09:04 24.97069 46.70412 2041 ft 14 kts 61°
2026-04-17 09:05 24.97117 46.70511 2041 ft 9 kts 61°
2026-04-17 09:05 24.97106 46.70569 2041 ft 10 kts 151°
2026-04-17 09:05 24.96955 46.70663 2038 ft 53 kts 149°
2026-04-17 09:05 24.96446 46.70987 2039 ft 113 kts 150°
2026-04-17 09:06 24.95605 46.71520 2031 ft 163 kts 149°
2026-04-17 09:06 24.94559 46.72181 2379 ft 172 kts 150°
2026-04-17 09:06 24.93600 46.72875 3047 ft 163 kts 143°
2026-04-17 09:06 24.92732 46.73657 3613 ft 161 kts 140°
2026-04-17 09:07 24.91864 46.74485 3952 ft 173 kts 141°
2026-04-17 09:07 24.90934 46.75373 4296 ft 184 kts 141°
2026-04-17 09:07 24.89909 46.76347 4602 ft 200 kts 142°
2026-04-17 09:07 24.88808 46.77387 4909 ft 217 kts 142°
2026-04-17 09:08 24.87569 46.78420 5202 ft 233 kts 149°
2026-04-17 09:08 24.86120 46.79347 5523 ft 250 kts 154°
2026-04-17 09:08 24.84520 46.80267 5875 ft 267 kts 155°
2026-04-17 09:08 24.82821 46.81232 6299 ft 280 kts 156°
2026-04-17 09:09 24.81092 46.82214 6921 ft 284 kts 156°
2026-04-17 09:09 24.79283 46.83107 7536 ft 287 kts 162°
2026-04-17 09:09 24.77373 46.83781 8121 ft 291 kts 168°
2026-04-17 09:09 24.75404 46.84341 8703 ft 295 kts 169°
2026-04-17 09:10 24.71356 46.85451 9825 ft 304 kts 168°
2026-04-17 09:10 24.69251 46.86030 10150 ft 318 kts 168°
2026-04-17 09:10 24.67047 46.86640 10439 ft 332 kts 169°
2026-04-17 09:11 24.64790 46.87268 10900 ft 338 kts 169°
2026-04-17 09:11 24.59645 46.89072 12185 ft 346 kts 164°
2026-04-17 09:11 24.57381 46.89939 12708 ft 349 kts 164°
2026-04-17 09:12 24.55059 46.90831 13228 ft 352 kts 164°
2026-04-17 09:12 24.52744 46.91716 13731 ft 354 kts 164°
2026-04-17 09:12 24.50419 46.92605 14196 ft 358 kts 165°
2026-04-17 09:12 24.48057 46.93503 14676 ft 360 kts 164°
2026-04-17 09:13 24.45687 46.94405 15144 ft 362 kts 164°
2026-04-17 09:13 24.43286 46.95319 15580 ft 365 kts 165°
2026-04-17 09:13 24.40884 46.96234 15983 ft 368 kts 164°
2026-04-17 09:13 24.38426 46.97168 16419 ft 371 kts 165°
2026-04-17 09:14 24.35988 46.98096 16826 ft 373 kts 165°
2026-04-17 09:14 24.33551 46.99021 17224 ft 375 kts 165°
2026-04-17 09:14 24.31043 46.99973 17615 ft 378 kts 165°
2026-04-17 09:14 24.28577 47.00908 17970 ft 380 kts 165°
2026-04-17 09:15 24.26039 47.01870 18345 ft 382 kts 165°
2026-04-17 09:15 24.23526 47.02824 18738 ft 384 kts 165°
2026-04-17 09:15 24.20992 47.03784 19069 ft 386 kts 164°
2026-04-17 09:15 24.18464 47.04742 19399 ft 388 kts 165°
2026-04-17 09:16 24.15879 47.05722 19770 ft 390 kts 165°
2026-04-17 09:16 24.13310 47.06736 20097 ft 393 kts 162°
2026-04-17 09:16 24.10813 47.07955 20403 ft 398 kts 156°
2026-04-17 09:16 24.08369 47.09439 20740 ft 401 kts 152°
2026-04-17 09:17 24.06016 47.11040 21053 ft 403 kts 151°
2026-04-17 09:17 24.03625 47.12693 21361 ft 405 kts 150°
2026-04-17 09:17 24.01254 47.14335 21671 ft 406 kts 150°
2026-04-17 09:17 23.98862 47.15986 21934 ft 408 kts 150°
2026-04-17 09:18 23.96442 47.17649 22203 ft 410 kts 151°
2026-04-17 09:18 23.94018 47.19311 22459 ft 412 kts 151°
2026-04-17 09:18 23.91580 47.20981 22742 ft 413 kts 151°
2026-04-17 09:18 23.89140 47.22650 23016 ft 415 kts 151°
2026-04-17 09:19 23.86679 47.24325 23253 ft 417 kts 151°
2026-04-17 09:19 23.84232 47.25988 23490 ft 419 kts 151°
2026-04-17 09:19 23.81731 47.27693 23732 ft 420 kts 151°
2026-04-17 09:19 23.79239 47.29390 23963 ft 422 kts 151°
2026-04-17 09:20 23.76769 47.31076 24192 ft 424 kts 151°
2026-04-17 09:20 23.74241 47.32800 24413 ft 425 kts 151°
2026-04-17 09:20 23.71738 47.34504 24629 ft 426 kts 151°
2026-04-17 09:20 23.69211 47.36228 24830 ft 428 kts 151°
2026-04-17 09:21 23.66699 47.37938 25027 ft 429 kts 151°
2026-04-17 09:21 23.64137 47.39684 25220 ft 431 kts 152°
2026-04-17 09:21 23.61595 47.41415 25407 ft 432 kts 152°
2026-04-17 09:21 23.59026 47.43164 25599 ft 434 kts 152°
2026-04-17 09:22 23.56486 47.44892 25757 ft 436 kts 152°
2026-04-17 09:22 23.53885 47.46662 25930 ft 437 kts 152°
2026-04-17 09:22 23.51302 47.48416 26123 ft 438 kts 152°
2026-04-17 09:22 23.48793 47.50302 26244 ft 445 kts 141°
2026-04-17 09:23 23.46844 47.52930 26346 ft 454 kts 119°
2026-04-17 09:23 23.45821 47.56155 26595 ft 455 kts 99°
2026-04-17 09:23 23.45462 47.59569 26855 ft 453 kts 94°
2026-04-17 09:23 23.45193 47.63006 26898 ft 458 kts 94°
2026-04-17 09:24 23.44920 47.66440 26984 ft 461 kts 95°
2026-04-17 09:24 23.44620 47.69930 27122 ft 462 kts 95°
2026-04-17 09:24 23.44302 47.73412 27284 ft 463 kts 96°
2026-04-17 09:24 23.43971 47.76887 27426 ft 464 kts 96°
2026-04-17 09:25 23.43631 47.80384 27564 ft 465 kts 96°
2026-04-17 09:25 23.43289 47.83861 27696 ft 466 kts 96°
2026-04-17 09:25 23.42938 47.87391 27817 ft 467 kts 96°
2026-04-17 09:25 23.42590 47.90890 27948 ft 468 kts 96°
2026-04-17 09:26 23.42240 47.94399 28083 ft 469 kts 96°
2026-04-17 09:26 23.41886 47.97928 28214 ft 470 kts 96°
2026-04-17 09:26 23.41531 48.01461 28321 ft 471 kts 96°
2026-04-17 09:26 23.41174 48.05018 28439 ft 472 kts 96°
2026-04-17 09:27 23.40817 48.08548 28573 ft 473 kts 96°
2026-04-17 09:27 23.40455 48.12113 28691 ft 474 kts 96°
2026-04-17 09:27 23.40093 48.15698 28809 ft 475 kts 96°
2026-04-17 09:27 23.39733 48.19241 28910 ft 476 kts 96°
2026-04-17 09:28 23.39367 48.22837 29028 ft 477 kts 96°
2026-04-17 09:28 23.39006 48.26375 29141 ft 477 kts 96°
2026-04-17 09:28 23.38638 48.29987 29268 ft 478 kts 96°
2026-04-17 09:28 23.38274 48.33559 29360 ft 479 kts 96°
2026-04-17 09:29 23.37931 48.37176 29466 ft 480 kts 95°
2026-04-17 09:29 23.37622 48.40784 29581 ft 480 kts 95°
2026-04-17 09:29 23.37017 48.47993 29786 ft 482 kts 95°
2026-04-17 09:30 23.36704 48.51651 29888 ft 483 kts 95°
2026-04-17 09:30 23.36392 48.55271 29984 ft 484 kts 96°
2026-04-17 09:30 23.35757 48.62546 30178 ft 485 kts 95°
2026-04-17 09:31 23.35119 48.69848 30336 ft 487 kts 96°
2026-04-17 09:31 23.34477 48.77148 30525 ft 487 kts 96°
2026-04-17 09:32 23.33827 48.84473 30733 ft 487 kts 96°
2026-04-17 09:32 23.33500 48.88150 30848 ft 486 kts 96°
2026-04-17 09:32 23.33177 48.91761 30954 ft 486 kts 96°
2026-04-17 09:33 23.32850 48.95412 31060 ft 486 kts 96°
2026-04-17 09:33 23.32523 48.99060 31145 ft 486 kts 96°
2026-04-17 09:33 23.32191 49.02752 31285 ft 485 kts 96°
2026-04-17 09:33 23.31865 49.06352 31439 ft 484 kts 96°
2026-04-17 09:34 23.31203 49.13646 31527 ft 486 kts 96°
2026-04-17 09:34 23.30535 49.20967 31704 ft 486 kts 96°
2026-04-17 09:35 23.30205 49.24592 31821 ft 486 kts 96°
2026-04-17 09:35 23.29869 49.28265 31930 ft 485 kts 96°
2026-04-17 09:35 23.29198 49.35549 32085 ft 486 kts 96°
2026-04-17 09:36 23.28523 49.42819 32287 ft 485 kts 95°
2026-04-17 09:36 23.28187 49.46439 32395 ft 485 kts 95°
2026-04-17 09:36 23.27848 49.50087 32464 ft 485 kts 95°
2026-04-17 09:37 23.27166 49.57379 32635 ft 485 kts 95°
2026-04-17 09:37 23.26825 49.61013 32747 ft 485 kts 95°
2026-04-17 09:37 23.26482 49.64670 32841 ft 485 kts 95°
2026-04-17 09:38 23.25798 49.71954 32963 ft 485 kts 96°
2026-04-17 09:38 23.25104 49.79265 33088 ft 485 kts 96°
2026-04-17 09:39 23.24410 49.86535 33202 ft 486 kts 96°
2026-04-17 09:39 23.23715 49.93787 33362 ft 485 kts 96°
2026-04-17 09:40 23.23011 50.01100 33521 ft 484 kts 95°
2026-04-17 09:40 23.22309 50.08361 33615 ft 485 kts 95°
2026-04-17 09:41 23.21604 50.15629 33767 ft 484 kts 95°
2026-04-17 09:41 23.20902 50.22856 33873 ft 484 kts 95°
2026-04-17 09:42 23.20184 50.30129 34008 ft 484 kts 95°
2026-04-17 09:42 23.19474 50.37361 34172 ft 483 kts 95°
2026-04-17 09:43 23.19113 50.40982 34300 ft 481 kts 95°
2026-04-17 09:43 23.18757 50.44561 34432 ft 479 kts 95°
2026-04-17 09:43 23.18401 50.48148 34554 ft 477 kts 95°
2026-04-17 09:43 23.18045 50.51725 34685 ft 475 kts 95°
2026-04-17 09:44 23.17687 50.55313 34816 ft 474 kts 95°
2026-04-17 09:44 23.17334 50.58852 34945 ft 472 kts 95°
2026-04-17 09:44 23.16980 50.62377 35075 ft 470 kts 95°
2026-04-17 09:44 23.16627 50.65867 35201 ft 468 kts 95°
2026-04-17 09:45 23.16276 50.69367 35325 ft 465 kts 95°
2026-04-17 09:45 23.15924 50.72847 35453 ft 463 kts 96°
2026-04-17 09:45 23.15577 50.76290 35580 ft 460 kts 95°
2026-04-17 09:45 23.15223 50.79766 35719 ft 458 kts 95°
2026-04-17 09:46 23.14880 50.83147 35826 ft 456 kts 95°
2026-04-17 09:46 23.14529 50.86597 35741 ft 459 kts 95°
2026-04-17 09:46 23.13825 50.93480 35624 ft 463 kts 95°
2026-04-17 09:47 23.13109 51.00442 35491 ft 468 kts 96°
2026-04-17 09:47 23.12380 51.07500 35370 ft 473 kts 95°
2026-04-17 09:48 23.11636 51.14638 35262 ft 478 kts 95°
2026-04-17 09:48 23.10888 51.21821 35126 ft 483 kts 95°
2026-04-17 09:49 23.10126 51.29086 34993 ft 487 kts 96°
2026-04-17 09:49 23.08886 51.36334 35031 ft 488 kts 103°
2026-04-17 09:50 23.07291 51.43452 35123 ft 487 kts 103°
2026-04-17 09:50 23.05672 51.50612 35117 ft 489 kts 103°
2026-04-17 09:51 23.04067 51.57766 35213 ft 484 kts 103°
2026-04-17 09:51 23.03280 51.61272 34614 ft 485 kts 104°
2026-04-17 09:51 23.02474 51.64837 33324 ft 492 kts 104°
2026-04-17 09:52 23.01663 51.68424 31919 ft 497 kts 104°
2026-04-17 09:52 23.00845 51.72062 30613 ft 496 kts 104°
2026-04-17 09:52 23.00041 51.75639 29527 ft 490 kts 105°
2026-04-17 09:52 22.99251 51.79147 28957 ft 473 kts 105°
2026-04-17 09:53 22.98475 51.82583 27998 ft 467 kts 105°
2026-04-17 09:53 22.97700 51.85999 26903 ft 464 kts 105°
2026-04-17 09:53 22.96948 51.89316 26070 ft 455 kts 105°
2026-04-17 09:53 22.96208 51.92576 25763 ft 439 kts 105°
2026-04-17 09:54 22.95481 51.95785 25432 ft 430 kts 105°
2026-04-17 09:54 22.94774 51.98896 25069 ft 425 kts 104°
2026-04-17 09:54 22.94075 52.01969 24679 ft 423 kts 105°
2026-04-17 09:54 22.93376 52.05043 24317 ft 417 kts 104°
2026-04-17 09:55 22.92682 52.08091 23948 ft 412 kts 104°
2026-04-17 09:55 22.92000 52.11085 23546 ft 408 kts 104°
2026-04-17 09:55 22.91335 52.14007 23189 ft 402 kts 105°
2026-04-17 09:55 22.90660 52.16965 22790 ft 399 kts 104°
2026-04-17 09:56 22.90003 52.19838 22455 ft 395 kts 104°
2026-04-17 09:56 22.89329 52.22741 22062 ft 392 kts 105°
2026-04-17 09:56 22.88661 52.25596 21638 ft 388 kts 104°
2026-04-17 09:56 22.88002 52.28426 21297 ft 384 kts 104°
2026-04-17 09:57 22.87357 52.31207 20911 ft 382 kts 104°
2026-04-17 09:57 22.86719 52.33970 20584 ft 378 kts 104°
2026-04-17 09:57 22.86082 52.36739 20226 ft 376 kts 104°
2026-04-17 09:57 22.85460 52.39438 19884 ft 372 kts 104°
2026-04-17 09:58 22.84834 52.42159 19478 ft 370 kts 104°
2026-04-17 09:58 22.84218 52.44839 19171 ft 366 kts 104°
2026-04-17 09:58 22.83600 52.47520 18814 ft 365 kts 104°
2026-04-17 09:58 22.82987 52.50180 18459 ft 363 kts 104°
2026-04-17 09:59 22.82381 52.52807 18099 ft 360 kts 104°
2026-04-17 09:59 22.81773 52.55439 17738 ft 359 kts 104°
2026-04-17 09:59 22.81170 52.58053 17454 ft 356 kts 104°
2026-04-17 09:59 22.80572 52.60638 17129 ft 354 kts 104°
2026-04-17 10:00 22.79975 52.63218 16817 ft 352 kts 104°
2026-04-17 10:00 22.79388 52.65757 16466 ft 350 kts 104°
2026-04-17 10:00 22.78797 52.68317 16133 ft 349 kts 104°
2026-04-17 10:00 22.78212 52.70853 15833 ft 346 kts 104°
2026-04-17 10:01 22.77626 52.73386 15494 ft 344 kts 104°
2026-04-17 10:01 22.77049 52.75876 15138 ft 342 kts 104°
2026-04-17 10:01 22.76474 52.78348 14820 ft 340 kts 104°
2026-04-17 10:01 22.75898 52.80830 14499 ft 337 kts 104°
2026-04-17 10:02 22.75327 52.83278 14160 ft 335 kts 104°
2026-04-17 10:02 22.74761 52.85708 13825 ft 333 kts 104°
2026-04-17 10:02 22.74198 52.88123 13500 ft 331 kts 104°
2026-04-17 10:02 22.73630 52.90560 13163 ft 329 kts 104°
2026-04-17 10:03 22.73074 52.92937 12830 ft 328 kts 104°
2026-04-17 10:03 22.72518 52.95317 12481 ft 327 kts 104°
2026-04-17 10:03 22.71962 52.97691 12158 ft 325 kts 104°
2026-04-17 10:03 22.71407 53.00064 11828 ft 323 kts 104°
2026-04-17 10:04 22.70858 53.02409 11512 ft 321 kts 104°
2026-04-17 10:04 22.70306 53.04763 11168 ft 320 kts 104°
2026-04-17 10:04 22.69761 53.07088 10835 ft 319 kts 104°
2026-04-17 10:04 22.69221 53.09389 10506 ft 317 kts 103°
2026-04-17 10:05 22.68674 53.11715 10175 ft 316 kts 103°
2026-04-17 10:05 22.68138 53.13997 9861 ft 314 kts 103°
2026-04-17 10:05 22.67602 53.16272 9540 ft 313 kts 103°
2026-04-17 10:05 22.67063 53.18568 9285 ft 308 kts 103°
2026-04-17 10:06 22.66541 53.20780 9270 ft 300 kts 103°
2026-04-17 10:06 22.66027 53.22962 9007 ft 301 kts 103°
2026-04-17 10:06 22.65515 53.25135 8730 ft 295 kts 103°
2026-04-17 10:06 22.65015 53.27257 8457 ft 290 kts 103°
2026-04-17 10:07 22.64518 53.29364 8190 ft 286 kts 103°
2026-04-17 10:07 22.64032 53.31421 7918 ft 284 kts 103°
2026-04-17 10:07 22.63542 53.33493 7642 ft 282 kts 102°
2026-04-17 10:07 22.63059 53.35535 7384 ft 280 kts 102°
2026-04-17 10:08 22.62580 53.37561 7118 ft 278 kts 102°
2026-04-17 10:08 22.62104 53.39575 6856 ft 275 kts 102°
2026-04-17 10:08 22.61633 53.41565 6569 ft 269 kts 102°
2026-04-17 10:08 22.61178 53.43486 6296 ft 263 kts 102°
2026-04-17 10:09 22.60730 53.45373 6031 ft 257 kts 101°
2026-04-17 10:09 22.60286 53.47247 5847 ft 256 kts 101°
2026-04-17 10:09 22.59845 53.49111 5604 ft 255 kts 101°
2026-04-17 10:09 22.59407 53.50951 5348 ft 249 kts 101°
2026-04-17 10:10 22.58982 53.52740 5095 ft 244 kts 101°
2026-04-17 10:10 22.58563 53.54499 4847 ft 239 kts 101°
2026-04-17 10:10 22.58152 53.56225 4602 ft 234 kts 101°
2026-04-17 10:11 22.57368 53.59521 4135 ft 219 kts 101°
2026-04-17 10:11 22.56996 53.61081 3976 ft 207 kts 100°
2026-04-17 10:11 22.56642 53.62561 3800 ft 205 kts 100°
2026-04-17 10:11 22.56287 53.64061 3600 ft 205 kts 100°
2026-04-17 10:12 22.55930 53.65559 3401 ft 203 kts 101°
2026-04-17 10:12 22.55585 53.67020 3201 ft 200 kts 101°
2026-04-17 10:12 22.55245 53.68444 3005 ft 192 kts 100°
2026-04-17 10:12 22.54916 53.69826 2814 ft 185 kts 100°
2026-04-17 10:13 22.54603 53.71136 2660 ft 175 kts 100°
2026-04-17 10:13 22.54308 53.72359 2645 ft 163 kts 100°
2026-04-17 10:13 22.54026 53.73548 2643 ft 161 kts 99°
2026-04-17 10:13 22.53751 53.74703 2642 ft 159 kts 99°
2026-04-17 10:14 22.53478 53.75859 2618 ft 159 kts 99°
2026-04-17 10:14 22.53202 53.77016 2602 ft 159 kts 99°
2026-04-17 10:14 22.52926 53.78171 2583 ft 160 kts 99°
2026-04-17 10:14 22.52645 53.79348 2534 ft 159 kts 99°
2026-04-17 10:15 22.52372 53.80494 2454 ft 159 kts 99°
2026-04-17 10:15 22.52097 53.81652 2380 ft 158 kts 99°
2026-04-17 10:15 22.51822 53.82803 2298 ft 158 kts 99°
2026-04-17 10:15 22.51544 53.83956 2102 ft 159 kts 100°
2026-04-17 10:16 22.51271 53.85087 1880 ft 154 kts 99°
2026-04-17 10:16 22.51022 53.86226 1814 ft 154 kts 91°
2026-04-17 10:16 22.50988 53.87377 1791 ft 151 kts 84°
2026-04-17 10:16 22.51066 53.88502 1616 ft 149 kts 78°
2026-04-17 10:17 22.51146 53.89620 1408 ft 151 kts 81°
2026-04-17 10:17 22.51201 53.90742 1149 ft 149 kts 82°
2026-04-17 10:17 22.51254 53.91864 911 ft 148 kts 81°
2026-04-17 10:17 22.51308 53.92977 663 ft 148 kts 83°
2026-04-17 10:18 22.51354 53.94077 454 ft 148 kts 82°
2026-04-17 10:18 22.51418 53.95183 294 ft 145 kts 82°
2026-04-17 10:18 22.51465 53.96086 297 ft 82 kts 83°
2026-04-17 10:18 22.51484 53.96506 290 ft 51 kts 85°
2026-04-17 10:19 22.51499 53.96876 286 ft 45 kts 86°
2026-04-17 10:19 22.51519 53.97213 289 ft 39 kts 87°
2026-04-17 10:19 22.51531 53.97455 291 ft 32 kts 86°
2026-04-17 10:19 22.51540 53.97704 289 ft 33 kts 87°
2026-04-17 10:20 22.51568 53.97843 288 ft 9 kts 38°
2026-04-17 10:20 22.51571 53.97888 287 ft 9 kts 187°
2026-04-17 10:20 22.51547 53.97821 288 ft 11 kts 268°
2026-04-17 10:20 22.51543 53.97721 289 ft 14 kts 266°
2026-04-17 10:21 22.51538 53.97605 291 ft 16 kts 268°
2026-04-17 10:21 22.51533 53.97469 291 ft 19 kts 266°
2026-04-17 10:21 22.51523 53.97313 290 ft 22 kts 265°
2026-04-17 10:21 22.51513 53.97134 288 ft 25 kts 270°
2026-04-17 10:22 22.51508 53.96932 286 ft 27 kts 269°
2026-04-17 10:22 22.51495 53.96719 287 ft 29 kts 272°
2026-04-17 10:22 22.51488 53.96502 290 ft 29 kts 266°
2026-04-17 10:22 22.51478 53.96283 294 ft 28 kts 269°
2026-04-17 10:23 22.51467 53.96067 297 ft 28 kts 267°
2026-04-17 10:23 22.51457 53.95850 297 ft 30 kts 268°
2026-04-17 10:23 22.51446 53.95614 294 ft 31 kts 267°
2026-04-17 10:23 22.51436 53.95422 290 ft 14 kts 267°
2026-04-17 10:24 22.51427 53.95345 288 ft 8 kts 229°
2026-04-17 10:24 22.51364 53.95342 288 ft 9 kts 184°
2026-04-17 10:24 22.51334 53.95282 287 ft 11 kts 268°
2026-04-17 10:24 22.51333 53.95244 287 ft 0 kts 265°